Regional Weather Roundup
Issued by NWS

Home | Current Version | Previous Version | Graphics & Text | Print | Product List | Glossary On
Versions: 1 2 3 4 5 6 7 8 9 10 11 12 13 14 15 16 17 18 19 20 21 22 23 24 25 26 27 28 29 30 31 32 33 34 35 36 37 38 39 40 41 42 43 44 45 46 47 48 49 50
000
ASUS43 KFSD 270002
RWRSD

WEATHER ROUNDUP FOR SOUTH DAKOTA
NATIONAL WEATHER SERVICE SIOUX FALLS SD
700 PM CDT FRI MAY 26 2017

NOTE: "FAIR" INDICATES FEW OR NO CLOUDS BELOW 12,000 FEET WITH NO
SIGNIFICANT WEATHER AND/OR OBSTRUCTIONS TO VISIBILITY.


SDZ001>005-009-010-012>017-270100-
NORTHWEST AND NORTH CENTRAL SOUTH DAKOTA

CITY           SKY/WX    TMP DP  RH WIND       PRES   REMARKS
BUFFALO          N/A     64  36  35 NW14      29.82R
FAITH            N/A     64  36  35 NW10      29.86R
MOBRIDGE       CLOUDY    72  37  28 NW12      29.79R
$$

SDZ012>016-024>037-041>051-057-063-072>074-270100-
SOUTHWEST AND SOUTH CENTRAL SOUTH DAKOTA

CITY           SKY/WX    TMP DP  RH WIND       PRES   REMARKS
RAPID CTY ARPT CLOUDY    60  38  43 S8        29.93R
PIERRE         PTSUNNY   70  36  28 NW12      29.83R
CUSTER         LGT RAIN  45  41  86 VRB3      29.99R FOG
ELLSWORTH AFB  CLOUDY    60  39  45 SW3       29.93R
PHILIP         CLOUDY    65  39  38 W6        29.88R
PINE RIDGE     CLOUDY    60  47  61 CALM      29.91S
SPEARFISH      FAIR      55  43  62 S10       29.94R
WINNER         FAIR      71  41  33 NW9       29.86R
$$

SDZ004>011-016>023-039-040-270100-
NORTHEAST SOUTH DAKOTA

CITY           SKY/WX    TMP DP  RH WIND       PRES   REMARKS
ABERDEEN       MOSUNNY   68  39  34 NW9       29.80S
WATERTOWN      SUNNY     66  42  41 NW10      29.80S
BROOKINGS      SUNNY     69  42  37 W12       29.81S
SISSETON         N/A     70  44  39 NW18      29.78R
$$

SDZ017-020-022-023-036>040-048>070-270100-
SOUTHEAST SOUTH DAKOTA

CITY           SKY/WX    TMP DP  RH WIND       PRES   REMARKS
SIOUX FALLS    MOSUNNY   72  43  35 NW15G23   29.82S
HURON          SUNNY     71  41  33 NW13      29.81R
CHAMBERLAIN    SUNNY     72  40  30 NW8       29.85R
MITCHELL       SUNNY     75  38  26 NW12      29.82S
YANKTON        SUNNY     72  44  36 W13       29.84S
$$

ABBREVIATIONS USED IN REMARKS
   TC - TEMPERATURE IN CELSIUS
  WCI - WIND CHILL INDEX
   HX - HEAT INDEX
  VSB - VISIBILITY





USA.gov is the U.S. government's official web portal to all federal, state and local government web resources and services.